Location: Hurstbourne Priors
(51.2000°N, 1.3667°W)
Time: 20:38:24
(UTC+00:00)

Transit 4A - Pass Details

Date: 22 April 2021
Orbit: 870 x 974 km, 66.8° (Epoch: 09 May)

Event Time Altitude Azimuth Distance (km) Brightness Sun altitude
Rises 23:34:20 0° 219° (SW) 3,620 - -25.9°
Reaches altitude 10° 23:36:54 10° 220° (SW) 2,665 - -26.0°
Exits shadow 23:41:34 53° 229° (SW) 1,137 8.1 -26.1°
Maximum altitude 23:43:07 82° 308° (NW) 945 7.9 -26.1°
Drops below altitude 10° 23:49:13 10° 37° (NE) 2,606 10.8 -26.2°
Sets 23:51:42 0° 38° (NE) 3,536 11.6 -26.2°
